Regional Weather Roundup
Issued by NWS Charleston, WV

Home | Current Version | Previous Version | Text Only | Print | Product List | Glossary Off
Versions: 1 2 3 4 5 6 7 8 9 10 11 12 13 14 15 16 17 18 19 20 21 22 23 24 25 26 27 28 29 30 31 32 33 34 35 36 37 38 39 40 41 42 43 44 45 46 47 48 49 50

824
ASUS41 KRLX 220010
RWRRLX
West Virginia Regional Weather Roundup
National Weather Service Charleston WV
800 PM EDT SUN MAY 21 2017

Note: "fair" indicates few or no clouds below 12,000 feet with no
significant weather and/or obstructions to visibility.

WVZ003-220100-
Northern Panhandle of West Virginia

CITY           SKY/WX    TMP DP  RH WIND       PRES   REMARKS
WHEELING       CLOUDY    67  64  90 S9        30.03F
$$

WVZ009-220100-
Northwest West Virginia

CITY           SKY/WX    TMP DP  RH WIND       PRES   REMARKS
PARKERSBURG    CLOUDY    71  66  84 S8        30.05F
$$

WVZ006-220100-
Western West Virginia

CITY           SKY/WX    TMP DP  RH WIND       PRES   REMARKS
HUNTINGTON     CLOUDY    71  65  81 S6        30.03R
$$

WVZ015-220100-
West Central West Virginia

CITY           SKY/WX    TMP DP  RH WIND       PRES   REMARKS
CHARLESTON     CLOUDY    70  64  81 CALM      30.05S
$$

WVZ022-031-220100-
North Central West Virginia

CITY           SKY/WX    TMP DP  RH WIND       PRES   REMARKS
CLARKSBURG     CLOUDY    68  63  84 S3        30.07F
MORGANTOWN     CLOUDY    69  61  75 S5        30.08F
$$

WVZ025-035-042-045-220100-
Southern West Virginia

CITY           SKY/WX    TMP DP  RH WIND       PRES   REMARKS
BECKLEY        CLOUDY    62  59  90 SE6       30.14R
LOGAN          MOCLDY    66  64  94 CALM      30.09R
BLUEFIELD      CLOUDY    60  57  89 S9        30.15F
LEWISBURG      LGT RAIN  61  57  86 CALM      30.17S
$$

WVZ047-220100-
Northern Mountains of West Virginia

CITY           SKY/WX    TMP DP  RH WIND       PRES   REMARKS
ELKINS         CLOUDY    66  60  81 SE3       30.11F
$$

WVZ052-220100-
Eastern Panhandle of West Virginia

CITY           SKY/WX    TMP DP  RH WIND       PRES   REMARKS
MARTINSBURG    CLOUDY    62  50  64 SE5       30.18S
PETERSBURG     CLOUDY    67  60  80 N3        30.12F
$$




USA.gov is the U.S. government's official web portal to all federal, state and local government web resources and services.